Hanford, WA
on Thursday, January 24, 2013

Thursday
Previous Day Next Day
Daily Summary
 ActualAverage (KMWH)Record (KMWH)
Temperature
Mean Temperature °F 31°F  
Max Temperature 32°F 37°F 51°F (2002)
Min Temperature 15°F 25°F 2°F (2008)
Degree Days
Heating Degree Days 42 34  
Month to date heating degree days 854  
Since 1 July heating degree days 3441  
Cooling Degree Days 0 0  
Month to date cooling degree days 0  
Year to date cooling degree days 0  
Moisture
Dew Point 22°F   
Average Humidity 88    
Maximum Humidity 98    
Minimum Humidity 73    
Precipitation
Precipitation 0.00 in 0.03 in 1.10 in (1987)
Month to date precipitation 0.98  
Year to date precipitation 0.98  
Wind
Wind Speed 6 mph   
Max Wind Speed 13 mph   
Max Gust Speed mph   
Visibility 8 miles   
Events     

Key: T is trace of precipitation, MM is missing value
Source: NWS Daily Summary
Time(PST)TemperatureDew PointHumidity Pressure Visibility Wind DirectionWind SpeedGust SpeedPrecipitationEvents Conditions
12:50 AM 18.9°F 17.4°F 94% 30.16 in 12.0 miles NW 2.3 mph - N/A   Clear
1:50 AM 19.9°F 18.5°F 94% 30.20 in 12.0 miles NW 4.6 mph - N/A   Clear
2:50 AM 15.8°F 14.4°F 94% 30.20 in 12.0 miles NNE 3.5 mph - N/A   Clear
3:50 AM 16.2°F 15.3°F 96% 30.22 in 10.0 miles NW 4.6 mph - N/A   Clear
4:50 AM 16.9°F 16.0°F 96% 30.23 in 6.0 miles West 5.8 mph - N/A   Clear
5:50 AM 18.7°F 18.0°F 97% 30.24 in 5.0 miles NNW 5.8 mph - N/A   Clear
6:50 AM 19.0°F 18.1°F 96% 30.26 in 3.0 miles NW 6.9 mph - N/A   Partly Cloudy
7:50 AM 19.4°F 18.3°F 96% 30.28 in 5.0 miles NNW 5.8 mph - N/A   Mostly Cloudy
8:50 AM 24.3°F 23.7°F 98% 30.30 in 3.0 miles NW 10.4 mph - N/A   Mostly Cloudy
9:50 AM 27.7°F 25.2°F 90% 30.30 in 6.0 miles NW 12.7 mph - N/A   Partly Cloudy
10:50 AM 30.7°F 24.8°F 79% 30.30 in 6.0 miles NW 12.7 mph - N/A   Partly Cloudy
11:50 AM 31.1°F 24.1°F 75% 30.31 in 8.0 miles NW 12.7 mph - N/A   Mostly Cloudy
12:50 PM 32.5°F 24.6°F 73% 30.29 in 10.0 miles NW 10.4 mph - N/A   Overcast
1:50 PM 31.8°F 24.8°F 75% 30.27 in 10.0 miles NW 9.2 mph - N/A   Overcast
2:50 PM 31.1°F 24.8°F 77% 30.27 in 8.0 miles NW 11.5 mph - N/A   Overcast
3:50 PM 29.5°F 24.4°F 81% 30.25 in 8.0 miles NW 10.4 mph - N/A   Overcast
4:50 PM 28.6°F 24.4°F 84% 30.24 in 7.0 miles WNW 10.4 mph - N/A   Overcast
5:50 PM 28.4°F 24.3°F 84% 30.24 in 7.0 miles NW 10.4 mph - N/A   Overcast
6:50 PM 28.0°F 24.3°F 86% 30.23 in 10.0 miles WNW 10.4 mph - N/A   Overcast
10:50 PM 29.3°F 27.0°F 91% 30.23 in 12.0 miles West 2.3 mph - N/A   Overcast
11:50 PM 29.3°F 26.4°F 89% 30.23 in 12.0 miles WNW 4.6 mph - N/A   Overcast
Moon Phase
Jan. 24 Jan. 26 Feb. 03 Feb. 10 Feb. 17
Sunrise:07:30 AM (PST) Moon Rise:02:55 PM (PST)
Sunset:04:51 PM (PST) Moon Set:05:34 AM (PST)

Copyright © 2014 The Weather Underground, Inc.